Location: Paderno d�Adda
(45.6667°N, 9.4333°E)
Time: 13:36:23
(UTC+00:00)

Resurs 01 Rocket - Pass Details

Date: 19 September 2020
Orbit: 633 x 645 km, 98.0° (Epoch: 29 October)

Event Time Altitude Azimuth Distance (km) Brightness Sun altitude
Exits shadow 19:42:52 62° 44° (NE) 728 1.7 -23.9°
Drops below altitude 10° 19:46:56 10° 352° (N) 2,052 4.7 -24.5°
Sets 19:49:09 0° 350° (N) 2,965 5.6 -24.9°
